Weather Roundup
Issued by NWS Chicago, IL

Home | Current Version | Previous Version | Graphics & Text | Print | Product List | Glossary On
Versions: 1 2 3 4 5 6 7 8 9 10 11 12 13 14 15 16 17 18 19 20 21 22 23 24 25 26 27 28 29 30 31 32 33 34 35 36 37 38 39 40 41 42 43 44 45 46 47 48 49 50
000
NZUS59 KLOT 222100
HRRLOT

CHICAGO AREA WEATHER ROUNDUP
NATIONAL WEATHER SERVICE CHICAGO/ROMEOVILLE IL
400 PM CDT MON SEP 22 2014

NOTE: "FAIR" INDICATES FEW OR NO CLOUDS BELOW 12,000 FEET WITH NO
SIGNIFICANT WEATHER AND/OR OBSTRUCTIONS TO VISIBILITY.

* THESE STATIONS ARE NOT UNDER NWS QUALITY CONTROL. THEY ALSO MAY NOT
  REPORT WEATHER SUCH AS PRECIPITATION OR FOG.

ILZ005-006-012>014-019>023-222200-
NORTHEAST ILLINOIS

CITY           SKY/WX    TMP DP  RH WIND       PRES   REMARKS
OHARE          SUNNY     66  39  37 VRB3      30.23F
MIDWAY         SUNNY     66  46  48 E9        30.24F
AURORA         SUNNY     68  43  40 N8        30.24F
LANSING*       SUNNY     64  46  50 E6        30.25S
WAUKEGAN       SUNNY     65  43  44 W5        30.23F
DUPAGE AIRPORT SUNNY     68  43  40 VRB5      30.24F
WHEELING       SUNNY     67  43  41 VRB6      30.25F
NORTHERLY IS     N/A     60  44  55 SE8         N/A
$$

WIZ051-052-058>065-066-070>072-222200-
SOUTHEAST WISCONSIN

CITY           SKY/WX    TMP DP  RH WIND       PRES   REMARKS
MILWAUKEE      MOSUNNY   68  43  40 W9        30.21F
KENOSHA*       MOSUNNY   68  46  45 W9        30.23F
RACINE*        MOSUNNY   67  45  45 SW10      30.23F
WAUKESHA       MOSUNNY   64  45  48 W7        30.22F
$$

INZ001>003-010>013-019-020-222200-
NORTHWEST INDIANA

CITY           SKY/WX    TMP DP  RH WIND       PRES   REMARKS
GARY*          SUNNY     64  41  42 NE9       30.26F
MICHIGAN CITY* NOT AVBL
RENSSELAER*    NOT AVBL
VALPARAISO     SUNNY     62  44  51 NW8       30.26F
$$

LMZ740>746-222200-
SOUTHERN LAKE MICHIGAN

STATION/POSITION TIME  SKY/WX   TEMP WIND        PRES    VSBY
                                AIR  DIR/SP/G
                 (UTC)          (F)  (DEG/KT/KT) (MB)    (MI)
HARRISON CRIB    2000            57  100/  8/  9   N/A
BURNHAM HARBOR   2100            60  100/  5/  6   N/A
CALUMET HARBOR   2000            58   60/  6/  8 1023.3F
BURNS HARBOR     NOT AVBL
MICHIGAN CITY    2000            59  320/  6/  9   N/A
$$

ABBREVIATIONS USED IN REMARKS
   TC - TEMPERATURE IN CELSIUS
  WCI - WIND CHILL INDEX
   HX - HEAT INDEX
  VSB - VISIBILITY
$$


USA.gov is the U.S. government's official web portal to all federal, state and local government web resources and services.